Terminal Aerodrome Forecast
Issued by NWS

Home | Current Version | Previous Version | Graphics & Text | Print | Product List | Glossary On
Versions: 1 2 3 4 5 6 7 8 9 10 11 12 13 14 15 16 17 18 19 20 21 22 23 24 25 26 27 28 29 30 31 32 33 34 35 36 37 38 39 40 41 42 43 44 45 46 47 48 49 50
000
FTUS43 KLOT 250535
TAFGYY
TAF
KGYY 250535Z 2506/2606 06012KT 6SM -RA OVC060
     FM251000 07013G18KT 6SM -RA OVC040
     FM251300 08014G20KT 5SM -RA BR OVC025
     FM251600 08016G22KT 3SM RA BR OVC007
     FM252300 05018G26KT 6SM -RA OVC012
     FM260100 03014G19KT P6SM FEW020 BKN035=

USA.gov is the U.S. government's official web portal to all federal, state and local government web resources and services.